Weather History for KBFF - March, 2012

Change the Weather History Date:

Monday, March 19, 2012

  Actual Average Record
Temperature  
Mean Temperature 43 °F 39 °F  
Max Temperature 58 °F 54 °F 82 °F (1907)
Min Temperature 28 °F 25 °F -6 °F (1943)
Degree Days  
Heating Degree Days 22 26  
Month to date heating degree days 368 539  
Since 1 July heating degree days 5017 5451  
Cooling Degree Days 0 0  
Month to date cooling degree days 0 0  
Year to date cooling degree days 0 0  
Moisture  
Dew Point 13 °F    
Average Humidity 40    
Maximum Humidity 70    
Minimum Humidity 10    
Precipitation  
Precipitation 0.00 in 0.03 in 0.61 in (2006)
Month to date precipitation 0.00 0.54  
Year to date precipitation 0.85 1.55  
Snow  
Snow 0.00 in 0.30 in 7.60 in (2006)
Month to date snowfall 0.0 4.8  
Snow Depth 0.00 in    
Sea Level Pressure  
Sea Level Pressure 29.49 in    
Wind  
Wind Speed 10 mph (West)    
Max Wind Speed 26 mph    
Max Gust Speed 35 mph    
Visibility 10 miles    
Events      
T = Trace of Precipitation, MM = Missing Value Source: NWS Daily Summary

Daily Weather History Graph

Daily Weather History Graph

Search for Another Location

Airport or City:

Trip Planner

Search our weather history database for the weather conditions in past years. The results will help you decide how hot, cold, wet, or windy it might be!

Date:

Astronomy

Mar. 19, 2012 Rise Set
Actual Time 6:58 AM MDT 7:06 PM MDT
Civil Twilight 6:30 AM MDT 7:33 PM MDT
Nautical Twilight 5:58 AM MDT 8:06 PM MDT
Astronomical Twilight 5:25 AM MDT 8:39 PM MDT
Moon 5:13 AM MDT (3/19) 4:34 PM MDT (3/19)
Length of Visible Light 13h 03m
Length of Day
12h 07m
Waning Crescent, 8% of the Moon is Illuminated
Mar 19
Waning Crescent
Mar 22
New
Mar 30
First Quarter
Apr 6
Full
Apr 13
Last Quarter

Hourly Weather History & Observations

Time (MDT) Temp. Windchill Dew Point Humidity Pressure Visibility Wind Dir Wind Speed Gust Speed Precip Events Conditions
12:53 AM 46.9 °F - 27.0 °F 46% 29.32 in 10.0 mi WNW 16.1 mph 24.2 mph N/A   Mostly Cloudy
1:53 AM 39.9 °F 35.8 °F 25.0 °F 55% 29.34 in 10.0 mi West 5.8 mph - N/A   Clear
2:53 AM 37.9 °F 32.7 °F 25.0 °F 60% 29.39 in 10.0 mi SSW 6.9 mph - N/A   Partly Cloudy
3:53 AM 35.6 °F 30.7 °F 24.8 °F 65% 29.47 in 10.0 mi West 5.8 mph - N/A   Clear
4:53 AM 37.9 °F - 21.9 °F 53% 29.42 in 10.0 mi Calm Calm - N/A   Clear
5:53 AM 37.0 °F 33.3 °F 19.9 °F 50% 29.45 in 10.0 mi West 4.6 mph - N/A   Clear
6:53 AM 28.9 °F - 19.0 °F 67% 29.48 in 10.0 mi Calm Calm - N/A   Clear
7:53 AM 28.9 °F 23.9 °F 19.0 °F 67% 29.50 in 10.0 mi North 4.6 mph - N/A   Clear
8:53 AM 42.1 °F 37.7 °F 14.0 °F 32% 29.48 in 10.0 mi WSW 6.9 mph - N/A   Clear
9:53 AM 48.0 °F - 10.9 °F 22% 29.46 in 10.0 mi WNW 15.0 mph 20.7 mph N/A   Clear
10:53 AM 53.1 °F - 3.0 °F 13% 29.45 in 10.0 mi West 18.4 mph 33.4 mph N/A   Clear
11:53 AM 54.0 °F - -0.9 °F 11% 29.45 in 10.0 mi West 19.6 mph 28.8 mph N/A   Clear
12:53 PM 54.0 °F - -0.9 °F 11% 29.45 in 10.0 mi West 15.0 mph 25.3 mph N/A   Clear
1:53 PM 55.9 °F - -0.0 °F 10% 29.45 in 10.0 mi SW 12.7 mph 31.1 mph N/A   Clear
2:53 PM 57.0 °F - -0.0 °F 10% 29.44 in 10.0 mi West 11.5 mph 20.7 mph N/A   Clear
3:53 PM 55.9 °F - -0.9 °F 10% 29.47 in 10.0 mi West 8.1 mph 23.0 mph N/A   Clear
4:53 PM 55.9 °F - 1.9 °F 11% 29.48 in 10.0 mi WNW 10.4 mph 25.3 mph N/A   Clear
5:53 PM 54.0 °F - 1.9 °F 12% 29.50 in 10.0 mi WNW 16.1 mph 21.9 mph N/A   Clear
6:53 PM 48.9 °F - 6.1 °F 18% 29.57 in 10.0 mi WNW 12.7 mph 21.9 mph N/A   Clear
7:53 PM 42.1 °F 35.2 °F 8.1 °F 25% 29.62 in 10.0 mi NW 12.7 mph - N/A   Clear
8:53 PM 39.9 °F 32.1 °F 16.0 °F 38% 29.62 in 10.0 mi NNW 13.8 mph - N/A   Clear
9:53 PM 39.0 °F 32.3 °F 21.9 °F 50% 29.65 in 10.0 mi West 10.4 mph - N/A   Clear
10:53 PM 37.0 °F 28.9 °F 25.0 °F 62% 29.66 in 10.0 mi NW 12.7 mph - N/A   Clear
11:53 PM 36.0 °F 28.0 °F 27.0 °F 70% 29.69 in 10.0 mi WNW 11.5 mph - N/A   Clear